Weather History for Acapulco, Mexico

Change the Weather History Date:

Wednesday, April 23, 2014

  Actual Average Record
Temperature  
Mean Temperature 84 °F -  
Max Temperature 95 °F 90 °F 95 °F (2014)
Min Temperature 74 °F 74 °F 64 °F (2012)
Cooling Degree Days 20    
Growing Degree Days 34 (Base 50)    
Moisture  
Dew Point 74 °F    
Average Humidity 74    
Maximum Humidity 89    
Minimum Humidity 44    
Precipitation  
Precipitation 0.00 in 0.03 in - ()
Sea Level Pressure  
Sea Level Pressure 29.83 in    
Wind  
Wind Speed 5 mph ()    
Max Wind Speed 22 mph    
Max Gust Speed -    
Visibility 7.5 miles    
Events      
Averages and records for this station are not official NWS values.
T = Trace of Precipitation, MM = Missing Value Source: Averaged Metar Reports

Daily Weather History Graph

Daily Weather History Graph

Search for Another Location

Airport:

Trip Planner

Search our weather history database for the weather conditions in past years. The results will help you decide how hot, cold, wet, or windy it might be!

Date:

Astronomy

Apr. 23, 2014 Rise Set
Actual Time 7:18 AM CDT 7:56 PM CDT
Civil Twilight 6:56 AM CDT 8:18 PM CDT
Nautical Twilight 6:29 AM CDT 8:44 PM CDT
Astronomical Twilight 6:03 AM CDT 9:11 PM CDT
Moon 2:57 AM CDT (4/23) 2:57 PM CDT (4/23)
Length of Visible Light 13h 22m
Length of Day
12h 38m
Waning Crescent, 34% of the Moon is Illuminated
Apr 23
Waning Crescent
Apr 29
New
May 6
First Quarter
May 14
Full
May 21
Last Quarter

Hourly Weather History & Observations

Time (CDT) Temp. Heat Index Dew Point Humidity Pressure Visibility Wind Dir Wind Speed Gust Speed Precip Events Conditions
12:45 AM 80 °F - 76 °F 84% 29.87 in 6 mi West 22.4 mph - -   Scattered Clouds
12:45 AM 80.6 °F 86.2 °F 75.2 °F 84% 29.87 in 7.0 mi West 4.6 mph - N/A   Scattered Clouds
1:45 AM 78.8 °F - 73.4 °F 83% 29.85 in 7.0 mi Calm Calm - N/A   Scattered Clouds
2:45 AM 77.0 °F - 73.4 °F 89% 29.84 in 7.0 mi Calm Calm - N/A   Scattered Clouds
3:45 AM 77.0 °F - 73.4 °F 89% 29.85 in 7.0 mi Calm Calm - N/A   Scattered Clouds
3:50 AM 78 °F - 75 °F 88% 29.83 in 6 mi West 2.2 mph - -   Scattered Clouds
4:45 AM 77.0 °F - 73.4 °F 89% 29.82 in 7.0 mi Calm Calm - N/A   Scattered Clouds
4:54 AM 77.0 °F - 73.4 °F 89% 29.82 in 7.0 mi Calm Calm - N/A   Scattered Clouds
5:45 AM 77.0 °F - 71.6 °F 83% 29.83 in 7.0 mi Calm Calm - N/A   Scattered Clouds
6:45 AM 77.0 °F - 71.6 °F 83% 29.85 in 7.0 mi NNE 3.5 mph - N/A   Scattered Clouds
6:50 AM 76 °F - 73 °F 87% 29.84 in 6 mi NE 2.2 mph - -   Scattered Clouds
7:43 AM 77.0 °F - 71.6 °F 83% 29.85 in 6.0 mi Calm Calm - N/A   Scattered Clouds
8:51 AM 80.6 °F 84.6 °F 71.6 °F 74% 29.88 in 6.0 mi NNE 4.6 mph - N/A   Scattered Clouds
9:42 AM 82.4 °F 87.2 °F 71.6 °F 70% 29.88 in 6.0 mi Calm Calm - N/A   Scattered Clouds
9:50 AM 85 °F - 73 °F 60% 29.90 in 12 mi WSW 2.2 mph - -   Haze
10:44 AM 86.0 °F 93.4 °F 73.4 °F 66% 29.89 in 6.0 mi Calm Calm - N/A   Scattered Clouds
11:42 AM 86.0 °F 90.4 °F 69.8 °F 58% 29.88 in 6.0 mi SSW 4.6 mph - N/A   Scattered Clouds
12:43 PM 86.0 °F 93.4 °F 73.4 °F 66% 29.87 in 6.0 mi SW 6.9 mph - N/A   Scattered Clouds
12:50 PM 91 °F - 72 °F 44% 29.86 in 12 mi South 4.5 mph - -   Partly Cloudy
1:46 PM 87.8 °F 97.6 °F 75.2 °F 66% 29.82 in 6.0 mi SSW 8.1 mph - N/A   Scattered Clouds
2:44 PM 87.8 °F 97.6 °F 75.2 °F 66% 29.80 in 7.0 mi SW 4.6 mph - N/A   Scattered Clouds
3:50 PM 91 °F - 77 °F 55% 29.79 in 12 mi SW 6.7 mph - -   Partly Cloudy
3:52 PM 87.8 °F 97.6 °F 75.2 °F 66% 29.80 in 7.0 mi SW 9.2 mph - N/A   Scattered Clouds
4:42 PM 87.8 °F 97.6 °F 75.2 °F 66% 29.75 in 8.0 mi West 13.8 mph - N/A   Scattered Clouds
5:43 PM 86.0 °F 93.4 °F 73.4 °F 66% 29.74 in 8.0 mi West 10.4 mph - N/A   Scattered Clouds
6:43 PM 86.0 °F 95.1 °F 75.2 °F 70% 29.83 in 8.0 mi WSW 11.5 mph - N/A   Scattered Clouds
6:50 PM 87 °F - 74 °F 58% 29.76 in 12 mi WSW 6.7 mph - -   Partly Cloudy
7:41 PM 84.2 °F 92.3 °F 75.2 °F 74% 29.77 in 8.0 mi WNW 8.1 mph - N/A   Scattered Clouds
8:43 PM 82.4 °F 88.2 °F 73.4 °F 74% 29.80 in 8.0 mi West 5.8 mph - N/A   Scattered Clouds
9:46 PM 82.4 °F 89.5 °F 75.2 °F 79% 29.85 in 8.0 mi West 4.6 mph - N/A   Clear
9:50 PM 83 °F - 75 °F 71% 29.85 in 6 mi West 4.5 mph - -  
10:42 PM 80.6 °F 86.2 °F 75.2 °F 84% 29.85 in 8.0 mi West 4.6 mph - N/A   Clear
11:42 PM 80.6 °F 86.2 °F 75.2 °F 84% 29.86 in 8.0 mi WNW 4.6 mph - N/A   Clear